Flight Track Log - Related Links

Times and Time Zones

All times are in EDT time to prevent confusion due to time zone crossing. See the SKW5564 flight status page for this flight to view local times or setup timezone preferences in your user account.

Time Position Orientation Groundspeed Altitude Reporting Facility
EDT Latitude Longitude Course Direction KTS MPH feet Rate Location/Type
Fri 10:28:16 AM 42.8578 -85.6075 253° West 227 261 5,200  Level Chicago Center
Fri 10:29:00 AM 42.7478 -85.8663 244° Southwest  Level FlightAware Approximate
Fri 10:29:19 AM 42.7992 -85.6503 208° Southwest 236 272 8,500  Level Chicago Center
Fri 10:30:00 AM 42.7168 -85.9530 244° Southwest  Level FlightAware Approximate
Fri 10:30:21 AM 42.7347 -85.6992 209° Southwest 261 300 10,000  Level Chicago Center
Fri 10:31:00 AM 42.6866 -86.0401 246° West  Level FlightAware Approximate
Fri 10:31:23 AM 42.6606 -85.7536 208° Southwest 291 335 10,100  Level Chicago Center
Fri 10:32:00 AM 42.6646 -86.1315 253° West  Level FlightAware Approximate
Fri 10:32:25 AM 42.5861 -85.8078 208° Southwest 301 346 10,100  Level Chicago Center
Fri 10:33:00 AM 42.6434 -86.2234 253° West  Level FlightAware Approximate
Fri 10:33:27 AM 42.4983 -85.8697 207° Southwest 297 342 10,100  Level Chicago Center
Fri 10:34:29 AM 42.4239 -85.9225 208° Southwest 300 345 10,100 -48 Level Chicago Center
Fri 10:35:31 AM 42.3481 -85.9778 208° Southwest 307 353 10,000 -48 Descending Chicago Center
Fri 10:36:33 AM 42.2678 -86.0378 209° Southwest 306 352 10,000  Level Chicago Center
Fri 10:37:35 AM 42.2383 -86.1311 247° West 278 320 10,000  Level Chicago Center
Fri 10:38:37 AM 42.2117 -86.2300 250° West 282 325 10,000 -97 Level Chicago Center
Fri 10:39:39 AM 42.1722 -86.3231 240° Southwest 284 327 9,800 -629 Descending Chicago Center
Fri 10:40:41 AM 42.1356 -86.4150 242° Southwest 282 325 8,700 -864 Descending Chicago Center
Fri 10:41:44 AM 42.0956 -86.5172 242° Southwest 260 299 8,000 -336 Descending Chicago Center
Fri 10:42:46 AM 42.0619 -86.6028 242° Southwest 258 297 8,000  Level Chicago Center
Fri 10:43:48 AM 42.0292 -86.6894 243° Southwest 258 297 8,000  Level Chicago Center
Fri 10:44:50 AM 41.9939 -86.7842 243° Southwest 248 285 8,000  Level Chicago Center
Fri 10:45:52 AM 41.9839 -86.8775 262° West 250 288 8,000  Level Chicago Center
Fri 10:46:54 AM 41.9839 -86.9764 270° West 262 302 8,000  Level Chicago Center
Fri 10:47:56 AM 41.9825 -87.0722 269° West 259 298 8,000  Level Chicago Center
Fri 10:48:58 AM 41.9831 -87.1672 270° West 257 296 8,000  Level Chicago Center
Fri 10:50:00 AM 41.9831 -87.2814 270° West 256 295 8,000  Level Chicago Center
Fri 10:51:02 AM 41.9828 -87.3764 270° West 256 295 8,000 -480 Level Chicago Center
Fri 10:52:05 AM 41.9822 -87.4708 270° West 255 293 7,000 -1,104 Descending Chicago Center
Fri 10:53:07 AM 41.9828 -87.5633 270° West 251 289 5,700 -1,258 Descending Chicago Center

Login

Don't have an account? Register now (free) for customized features, flight alerts, and more!